Location: Brachbach
(49.1847°N, 9.7240°E)
Time: 02:27:37
(UTC+00:00)

ARIANE 6 FM1 Upper Stage - Pass Details

Date: 26 January 2026
Orbit: 522 x 609 km, 62.0° (Epoch: 13 February)

Event Time Altitude Azimuth Distance (km) Brightness Sun altitude
Rises 17:32:38 0° 222° (SW) 2,705 7.1 -13.8°
Reaches altitude 10° 17:34:51 10° 223° (SW) 1,802 6.1 -14.1°
Maximum altitude 17:38:54 88° 133° (SE) 540 2.5 -14.8°
Enters shadow 17:41:19 23° 45° (NE) 1,159 3.8 -15.2°
